• In Uzbekistan
  • List of Countries
  • For 7 days
  • Water Temperature
  • Satellite Maps
  • Weather Map
  • Weather Widgets
  • user-avatar
    Login

    Hourly Weather Szekesfehervar

    Today, 19 October, Thursday

    Time Temperature Precipitation Wind Pressure Humidity
    00:00 +15°C° 0 mm 2 mps 750 mmHg 61%
    01:00 +14°C° 0 mm 1 mps 750 mmHg 64%
    02:00 +14°C° 0 mm 1 mps 750 mmHg 66%
    03:00 +13°C° 0 mm 1 mps 750 mmHg 68%
    04:00 +13°C° 0 mm 1 mps 750 mmHg 70%
    05:00 +13°C° 0 mm 1 mps 750 mmHg 72%
    06:00 +13°C° 0 mm 1 mps 750 mmHg 73%
    07:00 +12°C° 0 mm 1 mps 751 mmHg 75%
    08:00 +14°C° 0 mm 1 mps 751 mmHg 68%
    09:00 +18°C° 0 mm 1 mps 751 mmHg 60%
    10:00 +20°C° 0 mm 1 mps 751 mmHg 53%
    11:00 +21°C° 0 mm 1 mps 751 mmHg 49%
    12:00 +22°C° 0 mm 1 mps 751 mmHg 45%
    13:00 +23°C° 0 mm 2 mps 751 mmHg 40%
    14:00 +23°C° 0 mm 1 mps 750 mmHg 42%
    15:00 +22°C° 0 mm 1 mps 750 mmHg 44%
    16:00 +22°C° 0 mm 1 mps 750 mmHg 46%
    17:00 +20°C° 0 mm 1 mps 750 mmHg 50%
    18:00 +19°C° 0 mm 1 mps 750 mmHg 54%
    19:00 +16°C° 0 mm 1 mps 751 mmHg 59%
    20:00 +16°C° 0 mm 1 mps 751 mmHg 61%
    21:00 +15°C° 0 mm 1 mps 751 mmHg 63%
    22:00 +15°C° 0 mm 1 mps 751 mmHg 65%
    23:00 +13°C° 0 mm 0 mps 751 mmHg 66%

    Tomorrow, 20 October, Friday

    Time Temperature Precipitation Wind Pressure Humidity
    00:00 +13°C° 0 mm 0 mps 751 mmHg 68%
    01:00 +13°C° 0 mm 0 mps 751 mmHg 70%
    02:00 +12°C° 0 mm 0 mps 751 mmHg 71%
    03:00 +12°C° 0 mm 0 mps 751 mmHg 73%
    04:00 +12°C° 0 mm 0 mps 751 mmHg 74%
    05:00 +12°C° 0 mm 0 mps 751 mmHg 74%
    06:00 +12°C° 0 mm 0 mps 752 mmHg 74%
    07:00 +12°C° 0 mm 0 mps 752 mmHg 74%
    08:00 +15°C° 0 mm 1 mps 752 mmHg 67%
    09:00 +18°C° 0 mm 1 mps 753 mmHg 59%
    10:00 +20°C° 0 mm 1 mps 753 mmHg 51%
    11:00 +21°C° 0 mm 1 mps 753 mmHg 47%
    12:00 +22°C° 0 mm 1 mps 752 mmHg 43%
    13:00 +23°C° 0 mm 2 mps 752 mmHg 39%
    14:00 +23°C° 0 mm 1 mps 752 mmHg 40%
    15:00 +22°C° 0 mm 1 mps 752 mmHg 42%
    16:00 +22°C° 0 mm 1 mps 752 mmHg 44%
    17:00 +20°C° 0 mm 1 mps 752 mmHg 48%
    18:00 +19°C° 0 mm 1 mps 752 mmHg 53%
    19:00 +18°C° 0 mm 1 mps 753 mmHg 57%
    20:00 +16°C° 0 mm 1 mps 753 mmHg 59%
    21:00 +16°C° 0 mm 1 mps 753 mmHg 61%
    22:00 +15°C° 0 mm 1 mps 753 mmHg 64%
    23:00 +15°C° 0 mm 1 mps 753 mmHg 65%

    Day after tomorrow, 21 October, Saturday

    Time Temperature Precipitation Wind Pressure Humidity
    00:00 +14°C° 0 mm 1 mps 753 mmHg 67%
    01:00 +14°C° 0 mm 1 mps 753 mmHg 69%
    02:00 +14°C° 0 mm 1 mps 753 mmHg 70%
    03:00 +13°C° 0 mm 1 mps 753 mmHg 72%
    04:00 +13°C° 0 mm 1 mps 753 mmHg 73%
    05:00 +13°C° 0 mm 1 mps 753 mmHg 73%
    06:00 +13°C° 0 mm 1 mps 753 mmHg 74%
    07:00 +13°C° 0 mm 1 mps 753 mmHg 74%
    08:00 +15°C° 0 mm 1 mps 753 mmHg 66%
    09:00 +18°C° 0 mm 1 mps 754 mmHg 59%
    10:00 +20°C° 0 mm 1 mps 754 mmHg 52%
    11:00 +21°C° 0 mm 1 mps 753 mmHg 48%
    12:00 +22°C° 0 mm 1 mps 753 mmHg 45%
    13:00 +22°C° 0 mm 1 mps 753 mmHg 42%
    14:00 +22°C° 0 mm 1 mps 752 mmHg 43%
    15:00 +22°C° 0 mm 1 mps 752 mmHg 45%
    16:00 +21°C° 0 mm 1 mps 752 mmHg 46%
    17:00 +20°C° 0 mm 1 mps 752 mmHg 49%
    18:00 +19°C° 0 mm 1 mps 752 mmHg 53%
    19:00 +18°C° 0 mm 1 mps 752 mmHg 56%
    20:00 +16°C° 0 mm 1 mps 752 mmHg 58%
    21:00 +16°C° 0 mm 1 mps 752 mmHg 60%
    22:00 +16°C° 0 mm 1 mps 752 mmHg 62%
    23:00 +15°C° 0 mm 1 mps 752 mmHg 64%

    22 October, Sunday

    Time Temperature Precipitation Wind Pressure Humidity
    00:00 +15°C° 0 mm 1 mps 752 mmHg 67%
    01:00 +14°C° 0 mm 1 mps 751 mmHg 69%
    02:00 +14°C° 0 mm 1 mps 751 mmHg 71%
    03:00 +14°C° 0 mm 1 mps 751 mmHg 72%
    04:00 +14°C° 0 mm 1 mps 751 mmHg 74%
    05:00 +14°C° 0 mm 1 mps 751 mmHg 74%
    06:00 +14°C° 0 mm 1 mps 751 mmHg 74%
    07:00 +14°C° 0 mm 1 mps 751 mmHg 74%
    08:00 +15°C° 0 mm 1 mps 751 mmHg 69%
    09:00 +16°C° 0 mm 1 mps 751 mmHg 64%
    10:00 +19°C° 0 mm 1 mps 751 mmHg 59%
    11:00 +19°C° 0 mm 1 mps 750 mmHg 57%
    12:00 +20°C° 0 mm 1 mps 750 mmHg 54%
    13:00 +21°C° 0 mm 1 mps 749 mmHg 51%
    14:00 +21°C° 0 mm 1 mps 749 mmHg 53%
    15:00 +19°C° 0 mm 2 mps 748 mmHg 55%
    16:00 +19°C° 0 mm 2 mps 748 mmHg 58%
    17:00 +17°C° 1.4 mm 3 mps 748 mmHg 63%
    18:00 +15°C° 1.4 mm 4 mps 748 mmHg 69%
    19:00 +14°C° 1.4 mm 5 mps 748 mmHg 75%
    20:00 +13°C° 1.6 mm 6 mps 748 mmHg 78%
    21:00 +11°C° 1.6 mm 6 mps 748 mmHg 81%
    22:00 +11°C° 1.6 mm 7 mps 748 mmHg 84%
    23:00 +11°C° 1.1 mm 7 mps 748 mmHg 84%

    23 October, Monday

    Time Temperature Precipitation Wind Pressure Humidity
    00:00 +10°C° 1.1 mm 7 mps 748 mmHg 84%
    01:00 +10°C° 1.1 mm 7 mps 748 mmHg 84%
    02:00 +10°C° 1.5 mm 8 mps 748 mmHg 84%
    03:00 +9°C° 1.5 mm 8 mps 748 mmHg 84%
    04:00 +9°C° 1.5 mm 8 mps 748 mmHg 84%
    05:00 +8°C° 2 mm 9 mps 748 mmHg 84%
    06:00 +8°C° 2 mm 9 mps 748 mmHg 85%
    07:00 +8°C° 2 mm 9 mps 748 mmHg 85%
    08:00 +7°C° 2.1 mm 9 mps 748 mmHg 85%
    09:00 +7°C° 2.1 mm 9 mps 748 mmHg 85%
    10:00 +7°C° 2.1 mm 10 mps 748 mmHg 85%
    11:00 +7°C° 1.4 mm 10 mps 749 mmHg 84%
    12:00 +7°C° 1.4 mm 10 mps 749 mmHg 84%
    13:00 +7°C° 1.4 mm 10 mps 749 mmHg 84%
    14:00 +7°C° 0.9 mm 10 mps 749 mmHg 83%
    15:00 +7°C° 0.9 mm 10 mps 750 mmHg 82%
    16:00 +7°C° 0.9 mm 9 mps 750 mmHg 82%
    17:00 +7°C° 0.5 mm 9 mps 750 mmHg 81%
    18:00 +7°C° 0.5 mm 9 mps 751 mmHg 81%
    19:00 +9°C° 0.5 mm 8 mps 751 mmHg 81%
    20:00 +9°C° 0.5 mm 8 mps 752 mmHg 81%
    21:00 +9°C° 0.5 mm 8 mps 752 mmHg 81%
    22:00 +9°C° 0.5 mm 8 mps 753 mmHg 80%
    23:00 +8°C° 0.2 mm 7 mps 753 mmHg 80%

    24 October, Tuesday

    Time Temperature Precipitation Wind Pressure Humidity
    00:00 +8°C° 0.2 mm 7 mps 753 mmHg 80%
    01:00 +8°C° 0.2 mm 7 mps 753 mmHg 80%
    02:00 +8°C° 0.1 mm 7 mps 754 mmHg 80%
    03:00 +8°C° 0.1 mm 7 mps 754 mmHg 80%
    04:00 +8°C° 0.1 mm 7 mps 754 mmHg 79%
    05:00 +8°C° 0.1 mm 7 mps 754 mmHg 79%
    06:00 +8°C° 0.1 mm 7 mps 755 mmHg 79%
    07:00 +8°C° 0.1 mm 6 mps 755 mmHg 79%
    08:00 +9°C° 0 mm 6 mps 755 mmHg 76%
    09:00 +9°C° 0 mm 6 mps 756 mmHg 74%
    10:00 +10°C° 0 mm 6 mps 756 mmHg 72%
    11:00 +11°C° 0 mm 6 mps 756 mmHg 70%
    12:00 +11°C° 0 mm 6 mps 756 mmHg 68%
    13:00 +13°C° 0 mm 6 mps 756 mmHg 66%
    14:00 +11°C° 0.1 mm 6 mps 756 mmHg 69%
    15:00 +12°C° 0.1 mm 5 mps 756 mmHg 71%
    16:00 +10°C° 0.1 mm 5 mps 756 mmHg 73%
    17:00 +10°C° 0.1 mm 5 mps 757 mmHg 75%
    18:00 +10°C° 0.1 mm 5 mps 757 mmHg 77%
    19:00 +9°C° 0.1 mm 5 mps 757 mmHg 79%
    20:00 +10°C° 0.1 mm 4 mps 757 mmHg 79%
    21:00 +10°C° 0.1 mm 4 mps 758 mmHg 79%
    22:00 +10°C° 0.1 mm 4 mps 758 mmHg 79%
    23:00 +10°C° 0 mm 4 mps 758 mmHg 79%
    Show more